Precipitable_Water
1.05 1.14 1.17 0.94 0.53 0.54 0.40 0.41 0.55 0.57 0.74 1.02 1.07 1.03 1.00 1.05 0.91 0.67 1.51 1.65 1.49 1.45 1.52 1.57 1.51 1.47 1.36 1.30 1.11 1.21 1.41 1.00 1.03 1.34 1.51 1.56 1.63 1.56 1.53 1.51 1.45 1.25 0.87 0.89 1.01 1.08 1.04 1.04 1.04
1.04 1.05 1.01 0.79 0.48 0.39 0.36 0.44 0.45 0.56 0.78 1.03 1.07 1.10 1.09 1.02 1.37 1.39 1.44 1.59 1.56 1.51 1.54 1.57 1.58 1.47 1.37 1.25 1.05 1.37 1.31 0.96 0.88 1.16 1.46 1.62 1.69 1.66 1.51 1.45 1.19 0.84 0.87 0.99 1.05 1.05 1.01 0.97 1.00
0.98 1.03 0.70 0.61 0.52 0.41 0.37 0.43 0.47 0.59 0.75 0.91 0.95 1.12 1.11 1.14 1.44 1.54 1.63 1.61 1.63 1.56 1.58 1.55 1.58 1.46 1.36 1.16 1.16 1.39 1.19 0.90 0.82 0.98 1.31 1.61 1.69 1.52 1.36 1.17 0.89 0.86 0.92 1.01 1.05 1.00 0.98 1.01 1.05
0.74 0.81 0.74 0.52 0.46 0.50 0.46 0.46 0.50 0.59 0.74 0.86 0.93 0.89 1.23 1.48 1.54 1.73 1.79 1.66 1.59 1.62 1.59 1.59 1.56 1.51 1.33 1.17 1.33 1.33 1.04 0.94 0.84 0.86 1.10 1.40 1.49 1.39 1.24 1.08 0.89 0.90 0.96 1.04 1.03 1.00 1.03 1.06 1.09
0.71 0.66 0.49 0.45 0.47 0.53 0.55 0.56 0.53 0.54 0.63 0.79 0.88 0.81 1.05 1.48 1.80 1.90 1.89 1.76 1.50 1.60 1.63 1.59 1.61 1.51 1.35 1.21 1.46 1.32 1.09 0.94 0.87 0.95 0.88 1.14 1.24 1.20 1.08 0.94 0.91 0.92 0.94 1.01 1.03 1.02 1.04 1.03 1.06
0.46 0.53 0.39 0.38 0.43 0.52 0.59 0.61 0.57 0.57 0.61 0.74 0.80 0.81 0.98 1.48 1.62 1.81 1.96 1.84 1.65 1.55 1.62 1.59 1.64 1.47 1.32 1.22 1.45 1.33 1.12 1.01 0.91 0.92 0.97 0.94 1.00 1.00 0.94 0.91 0.94 0.91 0.92 1.01 1.03 1.02 1.01 1.01 0.99
0.41 0.38 0.30 0.39 0.38 0.47 0.56 0.68 0.58 0.57 0.56 0.65 0.82 0.76 1.06 1.26 1.53 1.69 1.91 1.88 1.74 1.64 1.58 1.59 1.60 1.44 1.29 1.11 1.40 1.37 1.24 1.09 0.95 0.94 0.98 0.99 1.01 0.92 0.93 0.93 0.94 0.94 0.92 0.94 0.97 0.98 0.98 0.97 0.95
0.45 0.44 0.31 0.37 0.37 0.36 0.56 0.67 0.65 0.61 0.56 0.81 0.93 0.76 0.82 1.15 1.42 1.61 1.80 1.78 1.77 1.61 1.61 1.57 1.61 1.44 1.25 1.06 1.18 1.42 1.36 1.20 1.01 0.95 0.94 0.96 0.98 0.96 0.95 0.96 0.99 1.00 0.99 0.96 0.95 0.94 0.94 0.93 0.93
0.58 0.32 0.27 0.29 0.34 0.35 0.58 0.60 0.70 0.76 0.67 0.72 0.89 0.90 1.00 1.26 1.39 1.43 1.48 1.56 1.55 1.56 1.62 1.64 1.60 1.46 1.28 1.13 1.10 1.39 1.45 1.30 1.16 1.04 0.98 0.98 0.99 1.00 1.01 1.01 1.02 1.01 1.00 0.99 0.97 0.96 0.94 0.90 0.88
0.47 0.31 0.23 0.31 0.36 0.38 0.57 0.61 0.65 0.68 0.67 0.68 0.78 1.06 1.13 1.24 1.25 1.21 1.29 1.41 1.40 1.50 1.58 1.67 1.64 1.51 1.35 1.19 1.12 1.25 1.52 1.49 1.35 1.23 1.09 1.04 1.04 1.03 1.03 1.03 1.01 1.00 0.97 0.96 0.95 0.93 0.91 0.87 0.83
0.41 0.29 0.31 0.33 0.43 0.49 0.56 0.65 0.73 0.68 0.64 0.70 0.65 0.89 1.01 1.09 1.15 1.16 1.18 1.28 1.31 1.46 1.67 1.69 1.71 1.63 1.46 1.25 1.12 1.19 1.40 1.53 1.46 1.33 1.20 1.15 1.12 1.07 1.05 1.04 1.03 1.01 0.99 0.94 0.93 0.90 0.85 0.83 0.84
0.30 0.33 0.41 0.39 0.45 0.49 0.50 0.74 0.69 0.75 0.70 0.83 0.85 0.90 1.01 1.03 1.08 1.06 1.05 1.15 1.26 1.55 1.64 1.76 1.82 1.68 1.57 1.42 1.18 1.17 1.22 1.41 1.48 1.39 1.29 1.22 1.15 1.12 1.07 1.05 1.05 1.01 0.97 0.89 0.88 0.86 0.84 0.86 0.91
0.31 0.29 0.41 0.44 0.48 0.56 0.53 0.64 0.71 0.73 0.81 0.92 1.00 1.06 0.95 1.00 1.10 1.11 1.05 1.15 1.32 1.41 1.51 1.49 1.61 1.80 1.67 1.51 1.33 1.24 1.30 1.30 1.37 1.45 1.40 1.30 1.19 1.13 1.14 1.15 1.10 1.05 1.02 0.93 0.84 0.88 0.93 0.95 0.97
0.36 0.32 0.34 0.46 0.48 0.53 0.56 0.58 0.75 0.73 0.89 0.87 0.96 1.00 1.08 1.11 1.16 1.18 1.09 1.18 1.26 1.34 1.40 1.41 1.47 1.69 1.69 1.55 1.43 1.33 1.27 1.31 1.41 1.46 1.48 1.39 1.22 1.21 1.20 1.15 1.09 1.06 1.03 1.05 0.97 1.00 0.99 0.99 1.01
0.37 0.34 0.37 0.39 0.45 0.51 0.62 0.54 0.61 0.87 0.86 0.84 0.94 1.00 1.11 1.16 1.26 1.18 1.18 1.18 1.11 1.17 1.39 1.40 1.33 1.42 1.53 1.63 1.55 1.48 1.39 1.35 1.31 1.32 1.33 1.27 1.16 1.18 1.20 1.18 1.09 1.10 1.11 1.10 1.09 1.05 1.03 1.02 1.04
0.35 0.35 0.24 0.36 0.44 0.60 0.60 0.39 0.63 0.89 0.82 0.78 0.85 0.99 1.04 1.25 1.26 1.27 1.36 1.37 1.32 1.26 1.35 1.42 1.38 1.43 1.52 1.55 1.62 1.61 1.59 1.50 1.42 1.39 1.38 1.31 1.26 1.31 1.31 1.26 1.21 1.16 1.14 1.11 1.05 1.05 1.01 1.02 1.05
0.34 0.24 0.23 0.36 0.44 0.56 0.56 0.51 0.72 0.84 0.79 0.75 0.84 0.93 1.01 1.13 1.24 1.32 1.38 1.41 1.36 1.39 1.41 1.48 1.44 1.49 1.46 1.59 1.49 1.52 1.60 1.57 1.57 1.51 1.47 1.41 1.40 1.38 1.35 1.32 1.30 1.26 1.16 1.13 1.08 1.04 1.07 1.08 1.11
0.24 0.27 0.32 0.34 0.38 0.50 0.55 0.57 0.68 0.76 0.76 0.76 0.84 0.90 0.96 1.00 1.16 1.29 1.37 1.41 1.49 1.50 1.40 1.42 1.49 1.47 1.58 1.56 1.62 1.65 1.52 1.52 1.64 1.64 1.59 1.55 1.50 1.50 1.45 1.42 1.37 1.32 1.20 1.18 1.15 1.11 1.16 1.17 1.16
0.37 0.32 0.37 0.37 0.42 0.43 0.49 0.54 0.64 0.78 0.78 0.77 0.80 0.85 0.87 0.92 1.06 1.18 1.29 1.33 1.41 1.40 1.40 1.44 1.50 1.51 1.57 1.52 1.43 1.52 1.53 1.48 1.57 1.70 1.71 1.64 1.61 1.57 1.50 1.47 1.47 1.40 1.27 1.23 1.24 1.21 1.16 1.16 1.17
0.41 0.30 0.36 0.40 0.46 0.49 0.49 0.49 0.63 0.71 0.71 0.78 0.81 0.82 0.85 0.87 0.90 0.98 1.09 1.18 1.31 1.28 1.36 1.45 1.45 1.54 1.62 1.65 1.66 1.44 1.47 1.51 1.61 1.66 1.74 1.72 1.70 1.63 1.64 1.56 1.49 1.44 1.35 1.33 1.34 1.31 1.23 1.16 1.22
0.38 0.27 0.31 0.35 0.47 0.51 0.45 0.41 0.55 0.66 0.68 0.77 0.85 0.89 0.87 0.86 0.85 0.88 0.91 0.98 1.11 1.16 1.32 1.38 1.43 1.47 1.44 1.50 1.60 1.68 1.63 1.57 1.58 1.66 1.58 1.67 1.65 1.59 1.57 1.54 1.58 1.51 1.50 1.42 1.43 1.40 1.29 1.17 1.21
0.31 0.40 0.37 0.39 0.35 0.30 0.47 0.31 0.48 0.57 0.58 0.66 0.73 0.83 0.84 0.85 0.87 0.87 0.87 0.87 0.89 0.93 1.10 1.31 1.40 1.43 1.48 1.51 1.46 1.64 1.50 1.44 1.52 1.56 1.59 1.61 1.66 1.63 1.64 1.64 1.63 1.55 1.53 1.50 1.46 1.46 1.34 1.30 1.13
0.37 0.46 0.45 0.44 0.38 0.37 0.39 0.36 0.44 0.53 0.49 0.59 0.69 0.78 0.82 0.85 0.84 0.84 0.85 0.86 0.88 0.89 0.92 1.07 1.23 1.31 1.37 1.36 1.40 1.44 1.40 1.46 1.44 1.56 1.47 1.45 1.55 1.59 1.66 1.67 1.64 1.61 1.61 1.54 1.45 1.36 1.35 1.32 1.19
0.50 0.42 0.44 0.42 0.38 0.27 0.38 0.37 0.36 0.43 0.47 0.56 0.69 0.78 0.82 0.85 0.83 0.82 0.82 0.84 0.84 0.86 0.88 0.95 1.04 1.17 1.28 1.30 1.33 1.33 1.30 1.36 1.37 1.41 1.40 1.38 1.46 1.45 1.53 1.56 1.66 1.62 1.55 1.42 1.37 1.37 1.30 1.29 1.24
0.44 0.34 0.27 0.26 0.27 0.25 0.41 0.38 0.38 0.44 0.49 0.59 0.64 0.70 0.77 0.81 0.79 0.78 0.79 0.80 0.81 0.81 0.81 0.86 0.90 0.96 1.14 1.20 1.22 1.25 1.31 1.32 1.32 1.34 1.32 1.33 1.34 1.44 1.45 1.46 1.42 1.46 1.40 1.39 1.38 1.28 1.22 1.20 1.06
0.41 0.41 0.29 0.21 0.23 0.27 0.40 0.30 0.36 0.46 0.53 0.60 0.62 0.70 0.76 0.75 0.77 0.77 0.79 0.80 0.81 0.80 0.83 0.83 0.82 0.87 0.94 1.02 1.08 1.19 1.25 1.24 1.30 1.29 1.31 1.34 1.35 1.45 1.48 1.51 1.43 1.34 1.30 1.30 1.26 1.16 1.10 1.06 1.00
0.42 0.36 0.42 0.30 0.34 0.29 0.32 0.35 0.42 0.48 0.50 0.56 0.56 0.61 0.64 0.69 0.71 0.72 0.74 0.76 0.75 0.74 0.76 0.79 0.84 0.88 0.91 0.92 0.93 0.94 1.01 1.08 1.16 1.22 1.28 1.30 1.37 1.42 1.42 1.36 1.30 1.27 1.23 1.16 1.12 1.10 1.00 1.00 0.94
0.43 0.42 0.30 0.35 0.24 0.22 0.29 0.29 0.30 0.39 0.43 0.51 0.50 0.52 0.57 0.65 0.66 0.68 0.70 0.72 0.73 0.73 0.73 0.74 0.78 0.78 0.82 0.88 0.89 0.88 0.87 0.88 0.92 1.01 1.07 1.13 1.20 1.27 1.24 1.22 1.20 1.16 1.14 1.15 1.08 1.01 1.02 0.96 0.91
0.36 0.32 0.32 0.32 0.29 0.22 0.23 0.25 0.39 0.41 0.43 0.43 0.51 0.53 0.55 0.59 0.62 0.64 0.66 0.67 0.65 0.62 0.59 0.59 0.60 0.62 0.66 0.70 0.75 0.78 0.78 0.78 0.79 0.84 0.92 1.00 1.08 1.14 1.13 1.13 1.11 1.08 1.06 1.03 1.01 0.99 0.96 0.90 0.90
0.44 0.36 0.33 0.24 0.22 0.24 0.22 0.23 0.39 0.41 0.46 0.47 0.46 0.49 0.52 0.53 0.53 0.54 0.56 0.56 0.55 0.53 0.54 0.54 0.55 0.53 0.56 0.61 0.61 0.62 0.66 0.70 0.70 0.74 0.79 0.85 0.90 0.96 0.95 0.97 0.95 0.96 0.96 0.95 0.91 0.87 0.84 0.80 0.79
Wind_Speed
26 27 28 30 31 32 35 36 32 30 33 35 33 23 23 22 22 21 18 21 24 22 21 19 17 15 13 11 10 11 10 9 9 10 11 12 13 11 10 8 7 6 6 7 7 7 6 7 7
25 27 28 30 32 33 37 38 37 30 30 32 32 25 21 22 24 22 19 23 25 23 22 20 18 16 14 13 12 12 11 10 10 12 12 12 12 11 10 8 7 7 7 8 7 7 7 6 7
25 26 28 31 33 38 36 36 39 31 30 34 32 33 24 24 23 23 22 25 25 24 22 21 19 17 15 14 14 13 11 11 11 12 13 12 12 11 10 8 8 8 8 8 7 7 7 7 7
24 26 29 32 36 38 36 34 36 37 28 32 33 33 29 23 22 24 25 26 26 24 23 22 20 18 16 16 15 14 12 11 12 13 14 13 12 10 9 8 9 8 8 8 7 7 6 6 6
24 26 29 32 38 36 36 34 32 35 37 33 34 32 32 26 20 25 26 27 28 25 24 22 21 20 18 17 17 15 13 13 12 13 14 13 12 10 9 10 9 8 8 7 7 6 5 5 4
23 27 29 35 37 39 35 36 31 31 34 35 37 33 31 30 28 21 26 28 28 27 25 24 23 21 19 19 18 16 15 14 13 13 13 14 13 11 11 10 9 8 8 7 6 5 4 3 2
24 26 33 30 37 34 39 37 35 31 31 35 36 35 30 35 27 24 26 29 29 28 26 25 24 22 20 20 19 18 17 15 14 14 14 14 13 12 12 11 9 8 7 6 5 4 3 1 1
25 26 30 33 31 36 35 37 35 33 32 30 36 31 33 34 32 27 20 27 30 29 28 26 25 23 22 21 21 19 19 17 16 15 14 14 13 13 12 11 9 8 7 6 4 3 3 2 2
26 28 31 37 35 36 30 35 39 33 32 32 31 31 31 34 32 29 26 25 26 29 29 28 26 24 23 22 22 21 20 19 17 16 15 14 14 13 12 10 9 8 7 6 5 4 4 4 4
29 29 35 31 35 33 33 33 34 36 34 33 33 31 29 33 33 32 29 26 24 28 30 29 27 26 24 23 23 23 20 20 18 17 16 15 14 13 12 10 9 8 7 7 6 6 6 6 6
31 35 34 31 33 35 31 31 30 34 36 36 36 33 34 32 34 33 29 28 29 31 31 30 28 27 26 25 24 24 23 21 19 18 17 16 14 13 12 11 10 9 9 8 8 8 8 8 8
34 36 36 33 32 35 39 30 31 32 38 33 35 37 34 35 35 33 29 30 24 31 32 30 29 30 28 27 25 25 24 23 21 19 18 16 15 14 13 12 11 11 11 10 10 10 9 9 9
35 37 34 37 37 33 38 37 31 32 33 33 34 36 38 35 35 33 28 31 26 29 34 33 28 32 30 28 27 25 24 23 22 21 19 18 16 15 14 13 13 13 13 12 12 11 11 10 11
26 32 39 34 35 34 35 37 31 33 30 31 34 34 37 36 35 31 31 28 25 26 31 32 28 30 32 31 28 26 25 24 23 22 21 20 18 16 16 15 15 14 14 14 13 13 12 12 12
29 28 30 39 36 30 34 35 36 26 33 30 33 33 34 36 36 32 32 31 30 24 31 27 21 32 31 30 28 28 27 26 24 23 23 22 20 19 18 17 17 17 16 16 15 15 14 14 14
21 26 29 36 36 29 34 35 40 28 29 29 29 30 34 34 34 33 33 33 29 24 25 28 21 23 32 30 30 30 27 27 26 25 24 23 22 21 20 19 18 19 19 18 17 17 16 16 15
18 21 31 28 38 28 31 26 33 27 25 28 27 29 28 27 33 33 32 30 31 28 25 26 24 22 23 34 31 29 28 27 26 26 25 25 24 23 22 21 20 20 20 20 19 18 18 17 17
17 22 24 29 34 35 29 18 26 27 26 27 27 25 26 28 26 30 29 28 27 28 27 28 26 24 25 24 31 29 30 29 27 26 26 26 25 25 24 23 23 22 22 22 21 20 20 19 19
14 28 15 23 27 31 30 23 21 27 29 25 27 25 24 25 26 25 27 26 27 26 27 26 26 25 26 25 27 28 29 31 29 28 27 27 26 27 27 25 24 24 24 23 23 22 22 21 21
17 28 16 17 23 21 25 21 20 26 28 28 26 26 25 25 25 24 25 25 26 25 25 26 27 23 25 26 28 24 26 27 29 28 28 27 27 27 28 27 26 25 25 25 24 24 23 22 22
17 26 20 19 21 19 18 18 16 25 27 28 29 28 27 25 24 24 23 22 22 23 23 25 27 25 24 23 25 26 26 26 26 27 28 26 26 26 27 28 27 26 25 25 25 24 24 23 23
19 19 18 21 17 16 15 10 15 25 27 27 31 32 28 26 24 23 22 21 21 20 21 22 25 26 24 23 23 26 27 25 25 26 26 26 25 25 26 27 27 27 26 26 25 24 25 25 25
16 17 14 16 16 15 12 9 9 19 24 26 26 33 29 26 25 24 23 22 21 21 22 23 23 24 24 24 25 25 26 25 24 24 26 24 24 25 26 25 26 26 25 23 23 25 26 25 25
21 17 13 11 11 11 8 11 9 14 19 23 22 27 28 27 25 23 23 22 22 22 23 24 24 25 25 24 24 25 26 25 25 24 23 25 25 25 23 24 22 24 24 25 25 28 29 29 27
15 14 10 8 8 7 5 8 10 10 11 20 22 23 27 25 24 22 20 20 20 21 23 26 26 26 27 26 26 26 27 28 28 28 28 28 29 29 28 26 27 27 26 24 25 24 25 28 29
15 9 10 9 9 7 4 7 7 6 7 14 15 17 23 21 20 18 18 18 18 18 19 20 22 25 26 26 27 28 28 28 30 31 31 30 29 28 28 28 29 30 29 28 27 26 26 28 31
11 8 7 9 6 5 5 4 7 4 5 10 11 15 16 18 17 16 16 16 16 15 16 18 20 23 24 26 27 27 27 28 28 28 28 28 29 28 28 27 27 27 28 28 27 30 31 32 32
10 11 6 5 6 5 3 4 5 5 6 8 9 12 13 13 14 14 14 14 15 16 17 17 19 21 23 25 25 26 26 27 27 26 27 27 27 27 27 27 27 28 28 29 29 30 31 32 33
7 6 5 5 4 5 6 5 5 6 8 9 10 10 11 11 11 11 12 12 13 15 16 17 18 20 22 23 25 25 26 26 26 26 27 26 27 28 28 28 28 29 29 30 31 32 33 33 33
7 8 5 4 5 3 4 4 5 10 10 9 9 9 10 10 10 10 10 11 11 13 14 16 17 18 20 21 23 24 25 26 26 26 27 27 27 27 27 28 28 29 30 31 32 32 32 32 33
Wind_Direction
249 242 235 227 224 225 225 223 219 218 215 217 216 221 221 220 217 219 222 210 197 196 195 195 196 196 196 195 190 181 173 166 162 157 150 151 152 153 151 149 145 139 133 128 122 115 108 102 96
246 239 232 227 224 225 226 222 218 220 218 211 213 222 224 224 219 218 213 202 197 197 197 197 197 197 196 194 187 181 175 171 168 165 158 156 155 154 154 150 146 139 134 130 122 113 107 102 98
244 236 230 227 227 227 226 222 221 223 221 213 213 215 225 225 222 215 212 200 198 198 198 198 198 198 195 192 186 182 179 176 172 171 168 161 160 156 154 150 146 143 138 133 125 116 108 104 101
240 236 233 228 228 228 224 226 222 222 222 213 216 218 221 222 217 213 206 201 199 199 199 199 199 197 195 191 190 185 182 178 174 174 174 172 165 162 161 157 150 145 142 139 131 121 113 107 104
238 233 232 230 229 229 226 225 225 219 219 219 213 215 219 217 212 206 204 202 200 200 199 199 198 196 195 192 188 187 184 179 175 173 176 177 177 173 166 159 154 150 148 145 139 129 119 110 103
238 232 233 230 229 228 225 223 222 220 221 218 220 216 218 214 213 208 206 203 201 201 200 199 198 197 195 193 190 188 184 180 176 174 173 175 175 172 166 162 159 156 153 152 150 144 134 119 101
236 233 233 232 229 229 225 222 220 219 221 220 215 217 215 212 208 208 209 203 202 201 200 199 198 197 197 194 192 189 185 181 178 176 175 173 172 171 169 166 164 162 161 160 162 164 163 155 125
237 237 233 230 227 230 224 223 221 219 222 218 216 217 214 211 210 207 204 202 203 203 201 200 200 198 196 195 193 191 189 185 182 179 177 176 175 174 174 172 172 173 175 179 184 194 210 235 266
238 236 235 229 225 224 222 221 221 219 220 218 217 220 214 204 205 205 203 205 204 202 203 202 199 199 198 196 194 190 189 186 183 181 179 178 178 178 179 182 185 189 195 204 215 228 243 258 269
236 236 236 233 229 225 226 223 222 219 220 220 217 218 206 202 205 205 209 207 207 211 205 203 202 200 198 197 193 192 191 190 188 186 185 185 185 187 190 194 198 206 216 224 235 246 256 265 273
241 239 238 236 230 226 226 223 222 216 221 218 215 213 209 207 208 206 209 215 220 209 205 203 203 203 201 198 196 196 196 193 193 192 192 193 195 198 203 209 216 224 232 240 246 254 260 265 272
246 241 238 235 232 225 223 224 222 217 219 221 221 212 208 208 207 207 211 216 213 204 205 204 209 205 204 202 201 199 200 199 199 199 199 201 205 209 215 221 229 237 242 247 251 256 261 266 273
244 240 237 231 231 229 223 222 222 219 218 223 216 211 211 210 209 213 217 210 208 205 210 207 213 209 206 206 203 201 202 204 204 205 207 210 214 219 224 231 239 243 246 250 252 255 260 266 272
243 238 233 231 227 225 222 217 215 218 219 218 209 209 211 207 209 210 210 203 203 204 201 203 212 205 207 205 204 204 206 207 208 211 214 218 223 228 233 239 244 246 248 249 251 255 260 266 271
242 240 232 222 219 222 214 218 214 217 216 213 210 208 208 209 207 210 206 201 206 209 200 201 205 207 207 206 208 210 211 211 214 217 221 225 230 234 239 244 247 248 249 250 251 255 261 266 270
232 226 220 210 208 211 203 212 210 214 210 209 210 212 209 207 206 208 209 209 207 205 201 206 209 206 210 213 213 213 213 217 219 223 227 230 233 237 242 246 249 249 249 251 253 256 260 265 269
222 211 202 202 201 205 198 211 208 204 203 206 209 212 212 211 212 211 208 212 214 213 209 209 212 213 210 217 214 216 218 222 223 227 231 234 236 239 244 248 251 250 250 251 253 255 259 264 269
201 193 195 196 195 200 200 218 204 204 202 207 209 209 210 214 217 212 211 212 213 216 217 218 218 219 217 217 217 222 225 225 226 230 234 235 238 242 245 249 251 251 251 251 253 256 259 264 269
206 193 184 189 191 195 202 204 208 208 206 208 211 213 215 214 214 214 215 216 215 221 221 220 219 222 221 219 221 228 228 224 233 233 233 236 241 246 246 248 251 252 251 252 253 256 258 263 268
210 177 178 179 184 188 198 209 231 212 206 210 213 216 219 218 217 218 219 220 225 224 225 224 225 227 228 230 230 227 225 229 230 235 239 240 245 248 246 248 252 253 252 251 252 255 259 263 268
170 174 181 175 175 178 193 215 239 212 207 212 217 217 217 219 220 220 220 219 226 228 230 230 228 231 232 234 233 231 230 235 234 240 239 244 246 249 249 250 251 253 251 252 253 256 258 264 269
160 169 176 170 178 187 196 221 237 211 210 214 224 222 220 219 218 217 217 222 226 229 231 231 233 236 236 238 239 243 239 239 244 245 242 245 248 250 251 251 251 250 250 252 254 257 261 264 269
159 152 148 159 172 180 201 232 220 202 212 218 218 220 217 217 218 222 224 229 232 236 237 237 234 236 239 242 243 243 243 248 249 252 244 248 252 256 254 256 252 249 248 248 254 260 262 266 270
153 144 145 157 176 190 225 218 219 203 217 215 215 214 213 216 221 226 228 233 236 238 240 240 240 242 242 244 248 250 250 250 249 249 250 250 255 256 253 249 248 252 251 261 260 264 265 266 269
159 161 160 166 172 186 216 196 219 221 222 212 209 212 211 213 219 223 228 234 237 241 244 244 244 245 248 251 255 255 255 255 256 254 256 256 256 256 255 254 255 257 261 263 264 268 269 268 271
152 145 166 158 171 181 191 203 199 209 217 203 208 199 197 206 212 218 225 229 235 238 242 244 245 245 250 254 257 258 259 260 260 259 258 258 258 256 255 254 257 261 261 261 264 267 270 274 275
156 154 156 142 148 155 180 184 175 170 151 156 168 175 186 197 207 215 220 225 232 238 243 246 247 248 252 255 258 259 261 262 263 261 260 259 259 256 253 255 258 260 261 263 265 268 274 277 278
157 156 138 138 146 138 180 182 181 173 161 165 158 165 177 188 201 212 221 229 237 242 248 250 252 254 256 257 257 259 261 262 262 262 261 259 257 255 254 256 260 262 261 265 266 271 276 278 278
169 169 133 134 129 141 154 190 172 191 175 168 176 175 177 187 200 213 225 235 243 250 254 256 258 259 259 259 257 258 259 260 261 261 260 258 257 256 255 258 262 263 264 267 271 274 277 277 279
180 182 187 187 205 175 171 199 225 193 178 175 173 183 195 202 212 222 229 239 248 253 257 259 261 264 263 263 262 262 261 261 261 261 260 260 259 259 258 258 262 265 267 270 273 276 278 279 280